This is the latest recevied weather packets stored in our database for station/object DL5ARK. If no packets are shown the sender has not sent any weather packets the latest 1 day(s).
| Time | Temp. | Humidity | Pressure | Rain* | Wind** | Luminosity | Snow |
|---|---|---|---|---|---|---|---|
| 1778070108 | 20.56° C | 59% | 992.6 hPa | 0 mm | - | - | - |
| 1778069567 | 19.44° C | 59% | 992.6 hPa | 0 mm | - | - | - |
| 1778069387 | 19.44° C | 59% | 992.6 hPa | 0 mm | - | - | - |
| 1778069207 | 18.33° C | 58% | 992.9 hPa | 0 mm | - | - | - |
| 1778068848 | 17.78° C | 58% | 992.9 hPa | 0 mm | - | - | - |
| 1778068668 | 18.33° C | 59% | 992.9 hPa | 0 mm | - | - | - |
| 1778068487 | 18.33° C | 59% | 992.6 hPa | 0 mm | - | - | - |
| 1778068307 | 17.78° C | 57% | 992.6 hPa | 0 mm | - | - | - |
| 1778068127 | 18.33° C | 56% | 992.6 hPa | 0 mm | - | - | - |
| 1778067587 | 20° C | 62% | 992.6 hPa | 0 mm | - | - | - |
| 1778067227 | 18.89° C | 57% | 992.6 hPa | 0 mm | - | - | - |
| 1778067048 | 18.89° C | 59% | 992.9 hPa | 0 mm | - | - | - |
| 1778066687 | 19.44° C | 62% | 992.6 hPa | 0 mm | - | - | - |
| 1778065968 | 19.44° C | 62% | 992.6 hPa | 0 mm | - | - | - |
| 1778065787 | 19.44° C | 63% | 992.9 hPa | 0 mm | - | - | - |
| 1778065607 | 18.33° C | 60% | 992.9 hPa | 0 mm | - | - | - |
| 1778065247 | 18.89° C | 62% | 992.9 hPa | 0 mm | - | - | - |
| 1778065067 | 18.33° C | 61% | 992.9 hPa | 0 mm | - | - | - |
| 1778064707 | 18.89° C | 63% | 992.9 hPa | 0 mm | - | - | - |
| 1778064347 | 18.33° C | 64% | 992.9 hPa | 0 mm | - | - | - |
| 1778064167 | 18.33° C | 64% | 992.9 hPa | 0 mm | - | - | - |
| 1778063990 | 17.78° C | 64% | 992.9 hPa | 0 mm | - | - | - |
| 1778063808 | 17.78° C | 66% | 992.9 hPa | 0 mm | - | - | - |
| 1778063628 | 17.22° C | 64% | 992.9 hPa | 0 mm | - | - | - |
| 1778063447 | 17.22° C | 63% | 992.9 hPa | 0 mm | - | - | - |
* Rain latest hour (hover to see other rain measurements)
** Current wind speed in m/s (hover to see current wind gust speed)